Location: Horowhenua
(40.7500°S, 175.3333°E)
Time: 05:10:59
(UTC+00:00)

Cosmos 1975 - Pass Details

Date: 28 January 2023
Orbit: 531 x 550 km, 82.5° (Epoch: 01 April)

Event Time Altitude Azimuth Distance (km) Brightness Sun altitude
Rises 13:28:33 0° 183° (S) 2,772 7.5 -29.6°
Reaches altitude 10° 13:30:47 10° 178° (S) 1,871 6.4 -29.5°
Enters shadow 13:33:25 35° 155° (SSE) 934 4.4 -29.4°
